RH
42 43 44 41 39 42 38 43 48 46 42 44 36 32 29 35 32 29 30 29 30 33 32 33 32 34 33 36 41 46 45 46 45 46 49 49 49 50 54 55 57 57 57 58
47 42 36 36 43 47 45 42 43 44 46 44 39 32 30 30 39 33 32 32 31 35 33 33 33 34 33 34 37 42 44 44 44 45 44 46 48 50 52 54 55 57 59 60
40 31 33 41 44 48 49 45 45 45 44 45 42 39 33 32 32 31 33 35 36 35 35 36 35 34 34 35 37 40 41 42 46 49 46 40 42 45 47 48 49 49 49 51
44 34 39 48 43 44 48 47 47 47 51 50 47 45 38 33 34 35 36 37 39 38 38 38 38 37 36 35 35 35 35 35 44 47 48 48 45 46 47 49 51 50 47 44
40 41 36 44 44 47 49 50 52 54 52 53 49 51 44 42 43 40 39 40 40 42 40 39 40 40 39 38 37 36 35 32 32 31 29 29 30 32 32 34 37 37 36 37
45 47 42 38 43 49 56 57 57 59 59 61 54 56 48 46 43 44 40 43 42 42 42 42 42 41 41 40 38 36 37 37 35 34 34 34 34 33 32 32 31 33 36 41
51 46 42 39 44 50 58 61 66 68 64 52 51 52 44 45 45 42 45 45 45 43 44 44 43 41 41 41 39 38 39 38 38 36 35 34 34 34 35 37 37 37 38 39
62 55 45 41 48 51 58 60 66 71 65 59 60 60 45 50 49 45 48 49 47 46 46 45 43 42 42 43 42 41 40 39 39 39 39 38 36 35 34 35 36 36 33 30
63 50 54 54 54 56 64 63 60 64 64 72 66 58 58 57 53 55 53 52 53 51 49 46 43 43 43 43 43 43 41 41 41 41 40 40 38 36 36 34 32 30 29 32
62 71 61 58 58 59 59 62 72 74 90 80 64 59 54 56 58 58 58 57 56 54 51 47 44 45 45 45 44 43 43 43 43 41 41 40 39 38 33 28 27 28 29 30
73 80 74 66 58 62 62 64 66 70 74 72 68 54 51 53 55 58 59 59 59 54 50 47 46 45 46 45 46 46 46 46 44 44 45 43 38 33 31 29 29 30 31 29
70 80 88 75 66 60 62 57 64 87 89 75 71 63 59 59 60 63 67 67 65 58 55 52 51 50 51 50 50 50 49 49 50 48 43 37 34 30 27 26 28 29 28 28
74 91 97 87 79 68 65 67 68 69 77 72 82 70 62 63 64 67 67 68 63 60 59 56 55 55 56 55 54 53 52 50 48 43 39 34 32 30 30 27 26 29 30 30
82 93 83 82 74 77 75 72 74 72 84 76 74 71 67 64 62 61 63 62 58 59 58 56 57 57 58 56 55 54 52 49 46 40 37 33 31 29 25 27 31 33 34 37
87 92 85 73 81 77 72 75 76 80 73 82 71 69 69 73 71 67 64 59 58 58 58 57 56 54 55 56 55 52 49 44 41 39 35 30 25 25 27 30 33 35 41 44
93 85 84 82 79 92 95 84 71 76 80 76 80 69 70 72 75 72 68 60 61 59 57 56 54 54 53 54 52 50 42 40 40 35 28 26 27 28 30 32 39 45 48 51
94 93 91 92 84 89 93 73 76 63 58 59 67 62 64 69 68 69 68 61 59 57 55 54 56 57 54 52 48 45 42 37 37 32 27 25 29 31 35 39 44 50 53 58
90 94 94 97 97 97 50 55 62 63 56 53 51 54 60 63 66 69 66 61 56 55 55 57 59 57 55 54 51 48 42 32 26 26 25 29 32 35 40 45 48 50 59 68
89 93 97 93 91 69 56 50 48 57 56 55 51 52 58 59 62 66 62 59 58 57 58 60 59 58 55 52 48 48 38 34 31 28 28 32 37 40 44 49 59 65 79 82
93 90 89 90 91 88 55 57 47 50 53 48 49 51 58 56 62 62 60 60 59 60 59 59 57 53 51 47 45 47 44 39 30 29 32 34 38 47 55 66 77 92 92 81
98 97 92 83 87 70 56 54 54 61 46 44 49 55 62 58 59 60 57 61 58 59 60 57 54 52 50 47 48 51 51 47 36 27 26 35 43 50 57 69 87 88 81 64
78 86 90 89 92 83 48 56 59 53 47 47 48 52 62 65 61 59 61 63 63 62 60 56 51 48 45 48 48 51 50 49 37 30 29 32 41 49 55 66 78 83 79 51
87 70 67 60 57 52 49 57 56 54 48 48 50 56 64 67 69 69 66 66 64 60 55 50 45 42 42 44 47 48 49 48 37 34 30 32 37 48 56 71 88 84 65 58
72 69 72 67 62 49 53 60 58 51 49 47 47 54 64 66 66 64 63 61 57 48 42 38 37 38 43 41 40 41 45 42 40 30 29 35 40 42 58 63 84 76 59 45
69 74 77 75 65 59 57 59 58 57 54 54 56 56 57 61 59 55 50 45 41 38 35 33 32 33 34 35 38 39 40 43 45 39 31 36 40 42 54 60 67 63 53 57
75 76 78 75 65 61 62 60 60 57 55 57 54 52 51 50 50 48 44 38 35 34 34 33 34 37 39 41 41 42 46 47 47 53 50 44 45 44 44 51 60 67 58 57